Weather reports worldwide

Advertisment
Tromso, Norway (1026): temperature & dewpoint: 28.06.2020 17:00:00 - 04.07.2020 17:00:00 (CEST)Tromso, Norway (1026): wind speed & gusts: 28.06.2020 17:00:00 - 04.07.2020 17:00:00 (CEST)Tromso, Norway (1026): wind direction: 28.06.2020 17:00:00 - 04.07.2020 17:00:00 (CEST)Tromso, Norway (1026): reduced air pressure: 28.06.2020 17:00:00 - 04.07.2020 17:00:00 (CEST)Tromso, Norway (1026): visibility: 28.06.2020 17:00:00 - 04.07.2020 17:00:00 (CEST)Tromso, Norway (1026): precipitation: 28.06.2020 17:00:00 - 04.07.2020 17:00:00 (CEST)
Date & Time tt [°C] td [°C] ff [km/h] ff [kn] fx [km/h] fx [kn] dd ppp [hPa] vv [km] rr [mm]
04.07.2020 17:00:00 - - - - - - - - - -
04.07.2020 16:00:00 10,4 6,0 3 2 10 5 NE 1002,0 - 0,1
04.07.2020 15:00:00 8,8 5,4 5 3 10 6 ENE 1002,3 - 0,4
04.07.2020 14:00:00 8,3 5,1 6 3 13 7 NE 1002,2 30 0,2
04.07.2020 13:00:00 9,4 5,4 4 2 9 5 ENE 1001,9 - 0,4
04.07.2020 12:00:00 9,2 5,4 4 2 18 10 NNE 1001,8 - 0,2
04.07.2020 11:00:00 9,2 4,6 9 5 20 11 NNE 1001,8 65 0,1
04.07.2020 10:00:00 9,6 3,6 8 4 16 9 NE 1002,0 - 0,0
04.07.2020 09:00:00 10,0 3,7 8 4 16 9 N 1001,8 - 0,0
04.07.2020 08:00:00 9,2 3,6 5 3 14 8 NE 1002,0 70 0,0
04.07.2020 07:00:00 9,2 4,0 7 4 14 8 NNE 1002,3 - 0,0
04.07.2020 06:00:00 8,6 4,0 6 3 13 7 NNE 1002,7 - 0,0
04.07.2020 05:00:00 8,4 4,6 3 1 15 8 N 1002,9 70 0,0
04.07.2020 04:00:00 7,8 3,5 10 5 15 8 NNE 1003,1 - 0,0
04.07.2020 03:00:00 7,4 3,1 9 5 16 9 NNE 1003,3 - 0,0
04.07.2020 02:00:00 7,7 2,8 11 6 18 10 NNE 1003,5 75 0,0
04.07.2020 01:00:00 7,9 2,2 12 7 17 9 NNE 1003,8 - 0,0
04.07.2020 00:00:00 8,5 2,7 11 6 18 10 NNE 1004,1 - 0,0
03.07.2020 23:00:00 9,0 3,2 10 5 16 9 NE 1004,3 75 0,0
03.07.2020 22:00:00 9,6 3,2 9 5 18 10 NNE 1004,2 - 0,0
03.07.2020 21:00:00 10,8 3,4 9 5 19 11 N 1004,3 - 0,0
03.07.2020 20:00:00 11,9 3,4 9 5 19 11 NNE 1004,3 75 0,0
03.07.2020 19:00:00 12,6 4,1 10 5 18 10 NE 1004,2 - 0,0
03.07.2020 18:00:00 13,9 3,4 7 4 16 9 NNE 1004,3 - 0,0
03.07.2020 17:00:00 13,3 4,5 8 4 17 9 NNW 1004,4 75 0,0
03.07.2020 16:00:00 13,3 3,1 9 5 19 10 WNW 1004,3 - 0,0
03.07.2020 15:00:00 13,2 1,9 5 3 16 9 W 1004,1 - 0,0
03.07.2020 14:00:00 13,2 0,6 9 5 19 10 NW 1004,0 75 0,0
03.07.2020 13:00:00 13,2 0,9 12 7 22 12 SW 1004,0 - 0,0
03.07.2020 12:00:00 12,3 1,9 12 6 24 13 SW 1004,0 - 0,0
03.07.2020 11:00:00 11,9 2,1 14 8 31 17 SSW 1004,0 75 0,0
03.07.2020 10:00:00 10,4 2,3 16 9 33 18 SSW 1003,9 - 0,0
03.07.2020 09:00:00 10,8 1,9 15 8 34 18 SSW 1003,6 - 0,0
03.07.2020 08:00:00 9,2 4,4 16 9 29 16 SSW 1003,4 70 0,3
03.07.2020 07:00:00 8,1 4,1 15 8 29 16 S 1003,4 - 0,2
03.07.2020 06:00:00 8,5 4,0 18 10 31 17 S 1003,2 - 0,0
03.07.2020 05:00:00 7,6 3,7 17 9 31 17 S 1002,9 40 0,0
03.07.2020 04:00:00 7,6 4,4 14 7 27 14 SW 1002,6 - 0,0
03.07.2020 03:00:00 7,1 3,9 13 7 23 12 SSW 1002,5 - 0,0
03.07.2020 02:00:00 6,8 4,1 12 7 23 12 SSW 1002,2 40 0,0
03.07.2020 01:00:00 6,6 4,4 7 4 21 12 SW 1002,4 - 0,0
03.07.2020 00:00:00 6,8 4,6 13 7 23 12 SSW 1001,8 - 0,0
02.07.2020 23:00:00 6,8 4,6 16 8 24 13 SSW 1001,5 23 0,1
02.07.2020 22:00:00 6,9 4,9 14 8 25 13 SSW 1001,3 - 0,1
02.07.2020 21:00:00 6,8 4,8 15 8 28 15 SSW 1000,9 - 0,2
02.07.2020 20:00:00 6,9 5,2 12 7 25 13 SSW 1000,4 23 0,3
02.07.2020 19:00:00 7,2 5,7 9 5 23 12 SSW 1000,2 - 0,4
02.07.2020 18:00:00 7,1 5,1 11 6 21 12 SSW 999,6 - 0,8
02.07.2020 17:00:00 7,2 4,9 12 6 24 13 SSW 999,2 24 0,4
02.07.2020 16:00:00 7,2 4,5 12 7 30 16 SSW 998,8 - 0,6
02.07.2020 15:00:00 6,9 4,6 15 8 25 14 S 998,2 - 0,4
02.07.2020 14:00:00 6,9 5,2 10 6 18 10 SSW 997,6 24 0,8
02.07.2020 13:00:00 6,3 4,8 9 5 21 11 SSW 997,2 - 1,1
02.07.2020 12:00:00 6,5 5,1 11 6 22 12 SSW 996,6 - 1,3
02.07.2020 11:00:00 6,4 5,0 11 6 19 10 SSW 995,9 20 0,7
02.07.2020 10:00:00 6,2 4,2 9 5 18 10 SSW 995,1 - 0,6
02.07.2020 09:00:00 5,8 4,1 10 5 16 8 SSW 994,5 - 0,9
02.07.2020 08:00:00 5,8 4,3 9 5 14 7 SSW 993,9 20 1,3
02.07.2020 07:00:00 5,9 4,9 4 2 9 5 W 993,5 - 2,1
02.07.2020 06:00:00 5,9 5,0 6 3 9 5 SW 993,1 - 1,4
02.07.2020 05:00:00 5,8 4,8 4 2 8 4 SSW 992,7 8 1,2
02.07.2020 04:00:00 5,9 4,9 4 2 8 4 SSW 992,4 - 1,9
02.07.2020 03:00:00 5,9 4,9 4 2 7 4 SSW 992,2 - 1,1
02.07.2020 02:00:00 6,3 5,4 3 2 6 3 SW 991,9 30 1,5
02.07.2020 01:00:00 6,3 5,4 4 2 7 4 WNW 991,7 - 1,3
02.07.2020 00:00:00 6,5 5,6 4 2 9 5 W 991,3 - 0,8
01.07.2020 23:00:00 6,6 5,5 5 3 10 6 SW 991,1 30 0,4
01.07.2020 22:00:00 6,7 5,7 7 4 11 6 S 990,8 - 0,7
01.07.2020 21:00:00 6,7 5,7 5 3 12 6 SW 990,6 - 0,6
01.07.2020 20:00:00 6,8 5,4 5 3 10 6 WSW 990,5 23 0,4
01.07.2020 19:00:00 7,0 5,3 7 4 12 6 W 990,2 - 0,6
01.07.2020 18:00:00 6,9 5,4 6 3 10 5 W 990,1 - 0,8
01.07.2020 17:00:00 6,9 5,4 8 4 12 6 WNW 990,0 23 1,1
01.07.2020 16:00:00 7,2 5,7 6 4 12 7 WNW 989,8 - 0,6
01.07.2020 15:00:00 7,5 5,3 5 3 9 5 W 989,6 - 0,4
01.07.2020 14:00:00 7,8 5,3 3 1 8 4 WNW 989,5 25 0,5
01.07.2020 13:00:00 6,9 4,9 3 2 9 5 N 989,5 - 0,3
01.07.2020 12:00:00 7,2 4,5 2 1 10 5 SSW 989,5 - 0,3
01.07.2020 11:00:00 7,0 4,3 6 3 14 8 NE 989,3 30 0,1
01.07.2020 10:00:00 7,1 4,1 8 4 13 7 NE 989,3 - 0,0
01.07.2020 09:00:00 6,4 4,1 5 3 16 9 NE 989,3 - 0,1
01.07.2020 08:00:00 6,6 3,2 8 5 17 9 NE 989,3 70 0,0
01.07.2020 07:00:00 6,5 3,0 11 6 20 11 NNE 989,5 - 0,0
01.07.2020 06:00:00 6,5 3,0 10 6 23 12 NNE 989,6 - 0,0
01.07.2020 05:00:00 6,0 3,0 11 6 24 13 NNE 989,8 70 0,0
01.07.2020 04:00:00 5,7 2,9 16 9 25 13 NNE 990,1 - 0,0
01.07.2020 03:00:00 5,6 3,0 15 8 26 14 NNE 990,6 - 0,0
01.07.2020 02:00:00 5,7 2,4 16 9 30 16 NNE 990,8 70 0,0
01.07.2020 01:00:00 5,9 2,5 17 9 29 16 NNE 991,4 - 0,0
01.07.2020 00:00:00 6,0 2,7 16 9 32 17 NNE 991,8 - 0,0
30.06.2020 23:00:00 6,1 2,4 18 10 32 17 NE 991,9 70 0,0
30.06.2020 22:00:00 6,1 2,7 16 9 30 16 NE 992,2 - 0,0
30.06.2020 21:00:00 6,2 2,7 17 9 33 18 NE 992,4 - 0,0
30.06.2020 20:00:00 6,5 2,8 18 10 31 17 NNE 992,7 70 0,0
30.06.2020 19:00:00 7,0 2,5 19 10 38 20 NNE 992,8 - 0,0
30.06.2020 18:00:00 7,5 2,6 21 12 36 20 NNE 993,2 - 0,0
30.06.2020 17:00:00 7,4 2,5 22 12 41 22 NNE 993,6 70 0,0
30.06.2020 16:00:00 7,6 2,7 24 13 47 26 NNE 993,6 - 0,0
30.06.2020 15:00:00 6,9 2,8 24 13 45 24 NNE 994,0 - 0,0
30.06.2020 14:00:00 7,1 2,6 25 14 46 25 NNE 994,2 65 0,0
30.06.2020 13:00:00 7,2 2,3 25 13 44 24 NNE 994,2 - 0,0
30.06.2020 12:00:00 7,2 2,5 26 14 46 25 NNE 994,5 - 0,0
30.06.2020 11:00:00 7,5 2,6 23 12 48 26 NE 994,7 65 0,0
30.06.2020 10:00:00 7,3 2,8 25 14 45 24 NNE 995,2 - 0,0
30.06.2020 09:00:00 7,3 2,8 31 17 49 27 NE 995,4 - 0,0
30.06.2020 08:00:00 7,1 3,4 24 13 42 23 NE 995,8 65 0,0
30.06.2020 07:00:00 7,2 3,6 26 14 49 27 NE 996,2 - 0,0
30.06.2020 06:00:00 7,2 4,2 23 12 41 22 NE 996,6 - 0,0
30.06.2020 05:00:00 7,2 4,7 21 11 35 19 NE 997,4 40 0,0
30.06.2020 04:00:00 7,0 5,3 15 8 33 18 NE 998,1 - 0,0
30.06.2020 03:00:00 7,2 5,7 18 10 34 18 NNE 998,7 - 0,1
30.06.2020 02:00:00 6,5 5,3 12 7 20 11 N 999,8 10 0,2
30.06.2020 01:00:00 6,6 5,5 9 5 16 9 N 1000,8 - 0,0
30.06.2020 00:00:00 6,5 5,5 8 4 18 10 N 1001,9 - 0,1
29.06.2020 23:00:00 6,6 5,1 10 5 21 11 N 1002,7 10 0,1
29.06.2020 22:00:00 7,4 5,2 9 5 19 10 N 1003,5 - 0,1
29.06.2020 21:00:00 8,3 5,1 7 4 19 11 NNE 1004,2 - 0,0
29.06.2020 20:00:00 8,7 4,9 10 5 20 11 NE 1005,0 - 0,0
29.06.2020 19:00:00 8,9 4,7 13 7 24 13 NE 1005,8 - 0,0
29.06.2020 18:00:00 9,3 4,9 15 8 23 12 NE 1006,3 - 0,0
29.06.2020 17:00:00 9,8 5,0 13 7 26 14 NE 1007,0 70 0,0
29.06.2020 16:00:00 9,8 5,0 17 9 26 14 NE 1007,7 - 0,0
29.06.2020 15:00:00 9,8 5,4 16 9 29 16 NE 1008,2 - 0,0
29.06.2020 14:00:00 9,9 5,7 17 9 31 17 NE 1008,7 70 0,0
29.06.2020 13:00:00 10,4 5,8 21 11 31 17 NNE 1008,9 - 0,0
29.06.2020 12:00:00 10,3 5,9 21 11 31 17 NNE 1009,4 - 0,0
29.06.2020 11:00:00 9,8 6,0 16 9 32 18 NNE 1009,8 70 0,0
29.06.2020 10:00:00 9,1 5,7 17 9 29 15 NNE 1010,1 - 0,0
29.06.2020 09:00:00 8,6 5,5 7 4 17 9 NE 1010,8 - 0,0
29.06.2020 08:00:00 7,7 5,2 6 3 12 7 S 1011,0 70 0,0
29.06.2020 07:00:00 7,5 4,6 8 5 18 10 ESE 1011,4 - 0,0
29.06.2020 06:00:00 7,4 4,7 8 5 24 13 ENE 1011,8 - 0,0
29.06.2020 05:00:00 7,2 4,7 9 5 21 12 NNE 1012,6 70 0,0
29.06.2020 04:00:00 6,6 4,4 11 6 20 11 NNE 1013,0 - 0,0
29.06.2020 03:00:00 6,3 4,3 9 5 23 13 NNE 1013,4 - 0,0
29.06.2020 02:00:00 6,4 4,2 14 8 25 13 NNE 1013,8 75 0,0
29.06.2020 01:00:00 6,8 4,3 9 5 19 11 N 1014,1 - 0,0
29.06.2020 00:00:00 7,3 4,6 11 6 21 11 N 1014,3 - 0,0
28.06.2020 23:00:00 8,2 4,6 12 7 24 13 N 1014,3 75 0,0
28.06.2020 22:00:00 8,7 4,9 13 7 30 16 N 1014,6 - 0,0
28.06.2020 21:00:00 10,6 5,0 16 9 27 15 NNE 1014,6 - 0,0
28.06.2020 20:00:00 12,0 5,2 14 8 33 18 N 1014,7 75 0,0
28.06.2020 19:00:00 12,2 6,0 14 8 27 14 N 1014,8 - 0,0
28.06.2020 18:00:00 13,4 6,0 11 6 29 16 NNW 1014,9 - 0,0
28.06.2020 17:00:00 13,3 6,4 14 7 28 15 NNW 1015,3 75 0,0

tt = temperature
td = dewpoint
ff = wind speed
fx = gusts
dd = wind direction
ppp = reduced air pressure
vv = visibility
rr = precipitation

Next stations